IRIDIUM 911

Last updated on Wed Nov 29 2017 00:19:02 GMT+0000 (Coordinated Universal Time)

1 24842U 97030G 17332.36855717 .00000153 00000-0 38061-4 0 9998 2 24842 86.4458 281.9119 0012291 266.1338 93.8458 14.44999120 76656
UTC large
Height (km)
Speed (km/s)
/
Latitude / Longitude
Inclination (degrees)
Orbital Period (minutes)
Azimuth
Elevation
Range (km)
Doppler Factor

Next 0 passes for location: London (51.5072 / 0.1276)

Sorry there are no passes over London.